Showing default

LIZZIESAT, 59132

Orbit data source: Space-Track

LIZZIESAT, 59132 is a payload satellite owned by Sidus Space (US) in SSO that was launched on Mon, 04 Mar 2024 UTC via an FALCON 9 launch vehicle from the Air Force Western Test Range (AFWTR). Payload-class satellites include a variety of spacecraft equipped with specific instruments for various scientific and technological missions. These include communications satellites like Starlink; space stations such as the ISS; scientific satellites like the Hubble; Earth observation satellites from companies like Planet Labs, Umbra, and HawkEye 360; GPS; miniature CubeSats for education and research; and military/defense satellites.

Loading next visibility...
Identifier
59132, 2024-043AL
Orbit
SSO
Country
Flag of USUS
Related business
Manufacturer
Sidus Space
Mission
Operational Commercial Technology
Bus & Motor
LIZZIESAT, Unknown motor
Mass
~100 kg wet, ~100 kg dry
Launch date (UTC)
2024-03-04 (2 years ago)
Launch vehicle
FALCON 9
Launch site
Air Force Western Test Range (AFWTR)
Object type
Payload
Rocket body
Debris
Shape & HBR
Oct Cyl + 8 Pan, 0.7 m
Radar Cross Section
1.008 m², Medium (>0.1 m² and < 1m²)

Expand to show TLE details & history
Last TLE update: 13 hours ago

TLE from 13 hours ago
0 LIZZIESAT
1 59132U 24043AL  26208.64527016  .00004436  00000-0  16625-3 0  9992
2 59132  97.5683 345.0355 0012229 101.8601 258.4010 15.27739349133117
Epoch: 2026-07-27T15:29Z
TLE epoch observation values (Epoch: 2026-07-27T15:29:11.341Z)
Latitude
-0.00004°
Longitude
167.41238°
Altitude
487.365 km
Speed
7.621 km/s
True Right ascension
23h 00m 08s
True Declination
0° 00' 00"
Sunlit
Object was in full shadow at epoch
Visualization orbit readout
Latitude
Unknown
Longitude
Unknown
Altitude
Unknown
Speed
Unknown
Apparent Right ascension
Unknown
Apparent Declination
Unknown
Sunlit
N/A
Visualization observer readout
Local Sidereal Time
18:09:32
Azimuth
Unknown
Elevation
Unknown
Doppler factor
Unknown
Orbital elements
Apogee altitude
487.921 km
Perigee altitude
471.148 km
Semi-major axis
6,857.672 km
Eccentricity
0.00122
Inclination
97.5683°
RAAN
345.0355°
Arg. of periapsis
101.8601°
True anomaly
258.26377°
Mean anomaly
258.401°
Eccentric anomaly
258.33238°
Mean motion
3.82189 °/min
Orbital period
94.19 mins
BSTAR
0.00016625
Loading maneuver chart data...
Computing Atmospheric mass density...

Documentation

Showing up to 5 results
|